Flag for Canada Weather past 2 weeks in Montreal, Quebec, Canada

Now
14 °F

Clear.


Feels Like: 6 °F
Forecast: 11 / 23 °F
Wind: 5 mph from West

Location: Montreal - Pierre Elliot Trudeau International Aiport

Current Time: Dec 20, 2014 at 12:59:37 AM

Latest Report: Dec 20, 2014 at 12:00 AM


Visibility: 15 mi

Pressure: 30.26 "Hg

Humidity: 79%

Dew point: 9 °F

Location of MontrealLocation

Historic Weather in Montreal — Graph

°F

Montreal temperature yesterday

Maximum temperature yesterday: 28 °F (at 12:00 AM)
Minimum temperature yesterday: 14 °F (at 10:00 PM)
Average temperature yesterday: 23 °F

Past Weeks' High & Low Weather Summary

 TemperatureHumidityPressure
High34 °F (Dec 17, 12:00 AM)100% (Dec 6, 6:55 AM)30.84 "Hg (Dec 6, 6:55 AM)
Low9 °F (Dec 5, 6:00 AM)41% (Dec 7, 4:00 PM)29.55 "Hg (Dec 11, 5:00 AM)
Average26 °F84%30.09 "Hg
* Reported Dec 4 11:00 PM — Dec 19 11:00 PM, Montreal, Weather by CustomWeather, © 2014

Note: Actual official high and low records may vary slightly from our data, if they occured in-between our weather recording intervals... More about our weather records

Advertising

Montreal weather history for previous 24 hours

 ConditionsComfort  
Time TempWeatherWind HumidityBarometerVisibility
11:00 PM
Dec 19
14 °FPassing clouds.5 mph79%30.25 "Hg15 mi
10:00 PM14 °FClear.7 mph79%30.24 "Hg15 mi
9:00 PM16 °FClear.8 mph79%30.24 "Hg15 mi
8:00 PM16 °FClear.9 mph79%30.23 "Hg15 mi
7:00 PM19 °FClear.12 mph73%30.22 "Hg15 mi
6:00 PM19 °FClear.12 mph73%30.21 "Hg15 mi
5:00 PM19 °FPassing clouds.12 mph73%30.17 "Hg15 mi
4:00 PM21 °FPassing clouds.9 mph68%30.15 "Hg15 mi
3:00 PM23 °FPassing clouds.12 mph68%30.13 "Hg15 mi
2:00 PM25 °FPassing clouds.9 mph63%30.11 "Hg15 mi
1:00 PM23 °FPassing clouds.9 mph68%30.11 "Hg15 mi
12:00 PM23 °FScattered clouds.12 mph74%30.11 "Hg15 mi
11:00 AM23 °FScattered clouds.9 mph74%30.11 "Hg15 mi
10:00 AM23 °FPartly sunny.14 mph68%30.11 "Hg15 mi
9:00 AM23 °FPartly sunny.13 mph74%30.08 "Hg15 mi
8:00 AM23 °FPartly sunny.9 mph80%30.06 "Hg15 mi
7:00 AM25 °FPassing clouds.6 mph80%30.03 "Hg15 mi
6:00 AM25 °FPassing clouds.6 mph80%30.01 "Hg15 mi
5:00 AM25 °FPassing clouds.9 mph80%29.99 "Hg15 mi
4:00 AM27 °FPassing clouds.9 mph74%29.98 "Hg15 mi
3:00 AM27 °FPassing clouds.8 mph74%29.98 "Hg15 mi
2:00 AM27 °FPassing clouds.9 mph80%29.97 "Hg15 mi
1:00 AM28 °FPassing clouds.12 mph74%29.96 "Hg15 mi
12:45 AM28 °FMostly cloudy.8 mph74%29.95 "Hg15 mi
12:00 AM28 °FLight snow. Overcast.9 mph80%29.95 "Hg15 mi
Weather by CustomWeather, © 2014

See weather overviewHow to use our weather pages